Lake Havasu Weather Center

Moon Phase Calendar



Lake Havasu Water Level
Online Cameras

 


      

Current Conditions in Lake Havasu City
9/24/2021 4:45:39 AM

83°F
Feels Like 82
Clear
Humidity
42%
Pressure
29.91"
Wind
3.4 mph (NNW)
Dew Point
58°F
UV Index
0/10 (Low)
Visibility
6 mi

Hourly Forecast

Date & Time Fri, Sep 24
4:00 AM
Fri, Sep 24
5:00 AM
Fri, Sep 24
6:00 AM
Fri, Sep 24
7:00 AM
Fri, Sep 24
8:00 AM
Fri, Sep 24
9:00 AM
Fri, Sep 24
10:00 AM
Fri, Sep 24
11:00 AM
Fri, Sep 24
12:00 PM
Fri, Sep 24
1:00 PM
Fri, Sep 24
2:00 PM
Fri, Sep 24
3:00 PM
Fri, Sep 24
4:00 PM
Fri, Sep 24
5:00 PM
Fri, Sep 24
6:00 PM
Fri, Sep 24
7:00 PM
Fri, Sep 24
8:00 PM
Fri, Sep 24
9:00 PM
Fri, Sep 24
10:00 PM
Fri, Sep 24
11:00 PM
Sat, Sep 25
12:00 AM
Sat, Sep 25
1:00 AM
Sat, Sep 25
2:00 AM
Sat, Sep 25
3:00 AM
Sat, Sep 25
4:00 AM
Sat, Sep 25
5:00 AM
Sat, Sep 25
6:00 AM
Sat, Sep 25
7:00 AM
Sat, Sep 25
8:00 AM
Sat, Sep 25
9:00 AM
Sat, Sep 25
10:00 AM
Sat, Sep 25
11:00 AM
Sat, Sep 25
12:00 PM
Sat, Sep 25
1:00 PM
Sat, Sep 25
2:00 PM
Sat, Sep 25
3:00 PM
Sat, Sep 25
4:00 PM
Sat, Sep 25
5:00 PM
Sat, Sep 25
6:00 PM
Sat, Sep 25
7:00 PM
Sat, Sep 25
8:00 PM
Sat, Sep 25
9:00 PM
Sat, Sep 25
10:00 PM
Sat, Sep 25
11:00 PM
Sun, Sep 26
12:00 AM
Sun, Sep 26
1:00 AM
Sun, Sep 26
2:00 AM
Sun, Sep 26
3:00 AM
Condition
Clear

Clear

Clear

Clear

Clear

Rain

Rain

Clouds

Clouds

Clouds

Clouds

Clouds

Clouds

Clouds

Clouds

Clouds

Clouds

Clouds

Clouds

Clouds

Clouds

Clouds

Clouds

Clouds

Clouds

Clouds

Clouds

Clouds

Clouds

Clouds

Clouds

Clouds

Clouds

Clouds

Clouds

Clouds

Clouds

Clouds

Clouds

Clouds

Clouds

Clouds

Clouds

Clouds

Clouds

Clouds

Clouds

Clouds
Temperature 83°F83°F83°F83°F85°F86°F85°F85°F90°F92°F94°F95°F94°F91°F89°F89°F88°F87°F86°F85°F84°F84°F84°F83°F84°F82°F81°F81°F84°F86°F88°F89°F89°F91°F93°F94°F94°F94°F93°F91°F91°F90°F88°F87°F85°F85°F84°F83°F
Feels Like 83°F83°F83°F83°F84°F86°F85°F84°F87°F90°F91°F92°F92°F90°F88°F88°F87°F86°F85°F85°F84°F83°F83°F83°F83°F82°F81°F81°F82°F84°F86°F87°F87°F89°F91°F92°F92°F91°F90°F89°F89°F88°F86°F85°F84°F84°F83°F83°F
Cloudiness 2%1%1%2%9%13%23%35%35%21%16%27%41%51%99%100%100%100%82%76%13%22%40%45%55%55%25%62%75%81%84%87%98%98%99%99%99%99%100%100%100%100%96%86%49%73%74%80%
Visibility 6 mi6 mi6 mi6 mi6 mi6 mi6 mi6 mi6 mi6 mi6 mi6 mi6 mi6 mi6 mi6 mi6 mi6 mi6 mi6 mi6 mi6 mi6 mi6 mi6 mi6 mi6 mi6 mi6 mi6 mi6 mi6 mi6 mi6 mi6 mi6 mi6 mi6 mi6 mi6 mi6 mi6 mi6 mi6 mi6 mi6 mi6 mi6 mi
Precipitation 0%2%14%18%14%32%42%40%20%20%18%18%18%12%0%0%0%0%0%0%0%0%0%0%0%0%0%0%0%0%0%0%0%0%0%0%0%0%0%0%0%2%2%2%0%0%0%0%
Humidity 44%43%45%45%41%39%43%39%30%26%25%24%27%33%35%35%36%38%39%41%41%43%42%42%41%42%42%41%37%33%31%30%31%29%27%26%26%26%27%28%30%31%32%34%36%37%39%42%
Dew Point 59°F58°F59°F59°F58°F59°F58°F55°F52°F51°F51°F51°F53°F56°F56°F56°F56°F56°F56°F57°F56°F57°F56°F56°F55°F55°F54°F54°F53°F52°F52°F52°F52°F53°F53°F52°F52°F52°F52°F53°F53°F53°F53°F53°F53°F54°F54°F55°F
Pressure 29.88"29.91"29.91"29.91"29.88"29.88"29.91"29.91"29.91"29.88"29.85"29.85"29.83"29.83"29.85"29.85"29.88"29.88"29.88"29.88"29.88"29.88"29.88"29.88"29.88"29.88"29.91"29.91"29.94"29.94"29.94"29.94"29.94"29.91"29.85"29.83"29.83"29.83"29.83"29.83"29.85"29.85"29.85"29.85"29.85"29.85"29.85"29.85"
Wind Speed 5.8 mph4.9 mph3.7 mph4.7 mph5 mph4.5 mph10.6 mph5.6 mph4.8 mph7.6 mph8 mph8.4 mph12.3 mph16.4 mph9.5 mph6.2 mph5.7 mph5 mph4 mph2.9 mph3.3 mph1.8 mph4.3 mph3.6 mph3.4 mph3.7 mph4.3 mph4 mph3 mph4.4 mph3.3 mph5.1 mph3.9 mph4.5 mph6.7 mph8.9 mph9.3 mph9 mph8.3 mph8.6 mph6 mph6.6 mph7.1 mph4.8 mph5 mph5.7 mph5.8 mph5.9 mph
Wind
Direction
135°
SE
138°
SE
120°
ESE
106°
ESE
135°
SE
161°
SSE
153°
SSE
123°
ESE
101°
E
169°
S
173°
S
179°
S
190°
S
200°
SSW
195°
SSW
190°
S
181°
S
186°
S
189°
S
190°
S
177°
S
163°
SSE
149°
SSE
146°
SE
154°
SSE
144°
SE
143°
SE
151°
SSE
140°
SE
152°
SSE
169°
S
166°
SSE
160°
SSE
154°
SSE
169°
S
190°
S
184°
S
191°
S
194°
SSW
191°
S
179°
S
181°
S
191°
S
208°
SSW
184°
S
169°
S
156°
SSE
148°
SSE

Daily Forecast

Date High Low Precip. Humidity
Today
Sep 24

Rain
95 °F
83 °F
42%
30%
Saturday
Sep 25

Clouds
94 °F
81 °F
2%
31%
Sunday
Sep 26

Rain
84 °F
79 °F
89%
43%
Monday
Sep 27

Clear
93 °F
77 °F
0%
36%
Tuesday
Sep 28

Clouds
95 °F
82 °F
0%
33%
Wednesday
Sep 29

Clouds
88 °F
75 °F
2%
33%
Thursday
Sep 30

Clear
91 °F
77 °F
0%
23%
Friday
Oct 1

Clear
90 °F
73 °F
0%
11%
Saturday
Oct 2

Clear
93 °F
75 °F
0%
15%
Sunday
Oct 3

Clear
98 °F
78 °F
0%
14%
Monday
Oct 4

Clear
100 °F
81 °F
0%
12%
Tuesday
Oct 5

Clear
100 °F
83 °F
0%
13%
Wednesday
Oct 6

Clouds
94 °F
78 °F
0%
13%
Thursday
Oct 7

Clear
86 °F
70 °F
0%
32%
Friday
Oct 8

Clear
87 °F
71 °F
0%
11%
Saturday
Oct 9

Clear
90 °F
69 °F
0%
9%

Temperature 8-14 Day Outlook



Precipitation 8-14 Day Outlook




Quick Links
Lake Havasu News
Lake Havasu Photos
Lake Havasu Videos




About Us
Contact Us
Site Map
Search Site
Advertise With Us
   
Havasu.LakesOnline.com
THE LAKE HAVASU WEBSITE

Copyright 2021, Lakes Online
Privacy    |    Legal